Flag for Belgium Weather past 2 weeks in Mechelen, Belgium

Now
79 °F

Passing clouds.


Feels Like: 80 °F
Forecast: 61 / 74 °F
Wind: 9 mph from Northeast

Location: Brussels National Airport

Current Time: Jul 24, 2014 at 5:57:54 PM

Latest Report: Jul 24, 2014 at 5:20 PM


Visibility: N/A

Pressure: 29.95 "Hg

Humidity: 48%

Dew point: 57 °F

Location of MechelenLocation

Historic Weather in Mechelen — Graph

°F

Mechelen temperature yesterday

Maximum temperature yesterday: 82 °F (at 3:50 PM)
Minimum temperature yesterday: 61 °F (at 5:20 AM)
Average temperature yesterday: 73 °F

Past Weeks' High & Low Weather Summary

 TemperatureHumidityPressure
High90 °F (Jul 18, 3:50 PM)100% (Jul 10, 8:20 PM)30.18 "Hg (Jul 10, 8:20 PM)
Low54 °F (Jul 15, 2:20 AM)33% (Jul 19, 2:20 PM)29.74 "Hg (Jul 13, 4:20 PM)
Average68 °F77%29.97 "Hg
* Reported Jul 9 4:20 PM — Jul 24 4:50 PM, Mechelen, Weather by CustomWeather, © 2014

Note: Actual official high and low records may vary slightly from our data, if they occured in-between our weather recording intervals... More about our weather records

Advertising

Mechelen weather history for previous 24 hours

 ConditionsComfort  
Time TempWeatherWind HumidityBarometerVisibility
4:50 PM
Jul 24
79 °FPassing clouds.7 mph45%29.95 "HgN/A
4:20 PM81 °FPassing clouds.6 mph42%29.95 "HgN/A
3:50 PM79 °FPassing clouds.8 mph45%29.95 "HgN/A
3:20 PM79 °FPassing clouds.8 mph45%29.98 "HgN/A
2:50 PM79 °FPassing clouds.9 mph42%29.98 "HgN/A
2:20 PM77 °FPassing clouds.8 mph51%29.98 "HgN/A
1:50 PM77 °FPassing clouds.9 mph51%29.98 "HgN/A
1:20 PM77 °FPassing clouds.8 mph51%29.98 "HgN/A
12:50 PM75 °FPassing clouds.8 mph54%29.98 "HgN/A
12:20 PM75 °FSunny.9 mph54%29.98 "Hg10 mi
11:50 AM75 °FPassing clouds.10 mph61%29.98 "HgN/A
11:20 AM73 °FSunny.9 mph61%29.98 "Hg10 mi
10:50 AM73 °FPassing clouds.8 mph65%30.01 "HgN/A
10:20 AM72 °FPassing clouds.8 mph65%30.01 "HgN/A
9:50 AM70 °FSunny.7 mph69%30.01 "Hg10 mi
9:20 AM68 °FPassing clouds.6 mph73%30.01 "HgN/A
8:50 AM66 °FPassing clouds.5 mph83%29.98 "HgN/A
8:20 AM64 °FPassing clouds.5 mph83%29.98 "HgN/A
7:50 AM63 °FSunny.1 mph88%29.98 "Hg10 mi
7:20 AM63 °FSunny.2 mph83%29.98 "Hg10 mi
6:50 AM59 °FClear.1 mph88%29.98 "Hg10 mi
6:20 AM59 °FClear.2 mph88%29.98 "Hg10 mi
5:50 AM59 °FClear.1 mph88%29.98 "Hg10 mi
5:20 AM59 °FClear.1 mph88%29.98 "Hg10 mi
4:50 AM59 °FClear.2 mph88%29.98 "Hg10 mi
4:20 AM61 °FClear.1 mph83%29.98 "Hg10 mi
3:50 AM61 °FClear.2 mph88%29.98 "Hg10 mi
3:20 AM63 °FClear.2 mph83%29.98 "Hg10 mi
2:50 AM63 °FClear.2 mph83%29.98 "Hg10 mi
2:20 AM63 °FClear.5 mph83%30.01 "Hg10 mi
1:50 AM64 °FClear.3 mph78%30.01 "Hg10 mi
1:20 AM66 °FClear.3 mph78%30.01 "Hg10 mi
12:50 AM66 °FClear.5 mph73%30.01 "Hg10 mi
12:20 AM68 °FClear.5 mph73%30.01 "Hg10 mi
11:50 PM
Jul 23
68 °FClear.5 mph73%30.01 "Hg10 mi
11:20 PM68 °FClear.5 mph73%30.01 "Hg10 mi
10:50 PM70 °FClear.5 mph69%30.04 "Hg10 mi
10:20 PM70 °FSunny.5 mph73%30.01 "Hg10 mi
9:50 PM72 °FSunny.5 mph69%30.01 "Hg10 mi
8:50 PM77 °FSunny.8 mph54%30.01 "Hg10 mi
8:20 PM79 °FSunny.8 mph58%30.01 "Hg10 mi
7:50 PM81 °FSunny.7 mph54%30.01 "Hg10 mi
7:20 PM81 °FSunny.9 mph51%30.01 "Hg10 mi
6:50 PM81 °FPassing clouds.9 mph54%30.01 "HgN/A
6:20 PM81 °FPassing clouds.10 mph54%30.01 "HgN/A
5:50 PM82 °FSunny.10 mph51%30.01 "Hg10 mi
5:20 PM82 °FPassing clouds.10 mph51%30.01 "HgN/A
Weather by CustomWeather, © 2014

See weather overviewHow to use our weather pages